Regional Weather Roundup
Issued by NWS Portland, ME

Current Version | Previous Version | Text Only | Print | Product List | Glossary Off
Versions: 1 2 3 4 5 6 7 8 9 10 11 12 13 14 15 16 17 18 19 20 21 22 23 24 25 26 27 28 29 30 31 32 33 34 35 36 37 38 39 40 41 42 43 44 45 46 47 48 49 50
000 ASUS41 KGYX 261310 RWRGYX WEATHER ROUNDUP FOR MAINE AND NEW HAMPSHIRE NATIONAL WEATHER SERVICE GRAY ME 900 AM EDT SUN MAR 26 2017 MEZ002-005-006-010-012-015-018-020-021-024-026-027-029-261400- MAINE CITY SKY/WX TMP DP RH WIND PRES REMARKS PORTLAND MOSUNNY 30 9 41 NE12 30.58S SANFORD CLOUDY 29 14 53 NE10 30.57R WCI 20 BAR HARBOR SUNNY 24 3 40 N10 30.60R WCI 14 WISCASSET SUNNY 29 4 34 VRB6 30.60R ROCKLAND SUNNY 27 9 46 NE14 30.58F WCI 16 FRYEBURG CLOUDY 26 13 57 CALM 30.56R LEWISTONAUBURN SUNNY 26 4 38 NE12 30.57S WCI 16 AUGUSTA SUNNY 25 0 33 NE10 30.57R WCI 15 WATERVILLE SUNNY 25 2 37 N12 30.56 WCI 14 BANGOR MOSUNNY 23 2 40 N12 30.60R WCI 12 GREENVILLE N/A 17 -2 43 NW6 30.49R MILLINOCKET MOSUNNY 21 -3 35 CALM 30.59R HOULTON SUNNY 16 0 49 N8 30.56R PRESQUE ISLE SUNNY 14 -1 51 NW9 30.58R FRENCHVILLE MOSUNNY 12 -4 48 NW8 30.52R CARIBOU SUNNY 14 -1 51 N6 30.55R $$ NHZ002-005-008-009-011-012-014-261400- NEW HAMPSHIRE CITY SKY/WX TMP DP RH WIND PRES REMARKS PORTSMOUTH PTSUNNY 32 17 52 NE7 30.54S ROCHESTER CLOUDY 30 13 49 N7 30.54S NASHUA CLOUDY 30 28 92 NE3 30.54F MANCHESTER CLOUDY 31 18 58 NE6 30.53S CONCORD MOSUNNY 27 24 89 CALM 30.54S LACONIA CLOUDY 31 27 85 CALM 30.55R PLYMOUTH FAIR 22 21 95 CALM 30.55S BERLIN CLOUDY 13 8 81 CALM 30.50F WHITEFIELD CLOUDY 14 10 84 CALM 30.50S JAFFREY CLOUDY 30 19 63 CALM 30.49S KEENE CLOUDY 30 27 88 CALM 30.52F LEBANON CLOUDY 24 20 84 CALM 30.53S MT WASHINGTON MOSUNNY 23 -4 30 W24 N/A WCI 7 $$ VTZ005-007-008-261400- VERMONT CITY SKY/WX TMP DP RH WIND PRES REMARKS ST JOHNSBURY N/A 15 10 80 MISG 30.52S MONTPELIER CLOUDY 16 16 100 E3 30.53S BURLINGTON CLOUDY 25 18 74 CALM 30.51S $$ MAZ007-012-024-CTZ003-RIZ002-NYZ038-NYZ072-261400- SOUTHERN NEW ENGLAND AND NY CITY SKY/WX TMP DP RH WIND PRES REMARKS BOSTON PTSUNNY 38 27 64 NE16 30.53F WORCESTER CLOUDY 30 19 63 E13G18 30.48R WCI 20 NANTUCKET SUNNY 42 32 67 E14 30.49R PROVIDENCE MOSUNNY 38 28 67 NE10 30.52R HARTFORD CLOUDY 33 28 81 N8 30.51R ALBANY CLOUDY 30 18 60 NE5 30.50S NEW YORK CITY CLOUDY 40 33 76 E15 30.45R $$ ANZ081-ANZ082-ANZ150-NHZ014-MEZ023>029-261400- COASTAL MARINE OBSERVATIONS STATION/POSITION TIME TEMP WIND PRES WAVE AIR SEA DIR/SP/G HT/PER (UTC) (F) (DEG/KT/KT) (MB) (FT/S) MOUNT DESERT ROC 1200 27 1035.2R MATINICUS ROCK 1200 29 30/ 15/ 18 1034.6R ISLE OF SHOALS 1200 34 40/ 19/ 21 1033.9R JEFFREYS LEDGE 1236 41 N/A 4/ 5 CASHES LEDGE BUO 1150 36 39 1034.3 4/ 5 GEORGES BANK BUO 1150 38 40 1031.2 4/ 9 $$ .............KEY.............. WCI - WIND CHILL TC - TEMPERATURE IN CELSIUS VSB - VISIBILITY IN MILES HX - HEAT INDEX FAIR- INDICATES FEW OR NO CLOUDS BELOW 12,000 FT, WITH NO SIGNIFICANT WEATHER AND/OR OBSTRUCTIONS TO VISIBILITY.

USA.gov is the U.S. government's official web portal to all federal, state and local government web resources and services.